#timestamp,LO_Frequency,Hit,StdDev 
1645545615.7,286047002.4,N
1645545635.5,286046999.9,N
1645545655.4,286047002.5,N
1645545675.2,286047002.3,N
1645545695.0,286047002.7,N
1645545695.9,286047002.7,N
1645545715.8,286046999.8,N
1645545735.6,286047002.1,N
1645545755.5,286047002.8,N
1645545775.3,286047002.6,N
1645545795.1,286047002.3,N
1645545815.9,286047001.8,N
1645545835.7,286046999.8,N
1645545855.5,286047002.3,N
1645545875.4,286047002.2,N
1645545895.2,286047002.5,N
1645545915.1,286047000.2,N
1645545916.0,286047000.2,N
1645545935.8,286047000.6,N
1645545955.6,286047002.7,N
1645545975.5,286047002.5,N
1645545995.3,286046999.8,N
1645546015.1,286047000.6,N
1645546035.9,286047000.9,N
1645546055.7,286046999.7,N
1645546075.6,286047000.5,N
1645546095.4,286047002.7,N
1645546115.2,286047002.8,N
1645546135.1,286047001.9,N
1645546136.0,286047001.9,N
1645546155.8,286047002.4,N
1645546175.6,286047002.8,N
1645546195.5,286047002.4,N
1645546215.3,286047001.6,N
1645546235.2,286047004.3,Y
1645546255.9,286047002.5,P
1645546275.7,286046999.8,N
1645546295.6,286047000.0,N
1645546315.4,286047000.7,N
1645546335.3,286046999.7,N
1645546355.1,286047002.7,N
1645546356.0,286047002.7,N
1645546375.8,286047002.8,N
1645546395.7,286047000.3,N
1645546415.5,286047002.1,N
1645546435.4,286047002.7,N
1645546455.2,286047000.6,N
1645546475.0,286046999.8,N
1645546475.9,286046999.8,N
1645546495.8,286047002.2,N
1645546515.6,286047002.6,N
1645546535.4,286047002.1,N
1645546555.3,286047002.3,N
1645546575.1,286046999.7,N
1645546595.9,286047002.8,N
1645546615.7,286047000.4,N
1645546635.5,286047002.3,N
1645546655.4,286047002.3,N
1645546675.2,286047000.1,N
1645546695.0,286047001.0,N
1645546695.9,286047001.0,N
1645546715.8,286047000.2,N
1645546735.4,286047002.6,N
1645546755.3,286047002.7,N
1645546775.1,286046999.9,N
1645546795.9,286047001.8,N
1645546815.7,286047001.7,N
1645546835.5,286047002.0,N
1645546855.4,286047001.6,N
1645546875.2,286047004.2,Y
1645546895.1,286047002.6,P
1645546896.0,286047002.6,P
1645546915.8,286047001.6,N
1645546935.7,286047001.7,Y
1645546955.5,286046998.8,P
1645546975.3,286046998.6,N
1645546995.2,286046999.3,N
1645547015.0,286046998.7,N
1645547015.9,286046998.7,N
1645547035.7,286046998.8,N
1645547055.6,286046998.3,N
1645547075.4,286046998.6,N
1645547095.3,286046999.3,N
1645547115.1,286046999.2,N
1645547116.0,286046999.2,N
1645547135.8,286046999.5,N
1645547155.7,286046998.3,N
1645547175.5,286046998.3,N
1645547195.3,286046998.5,N
1645547215.2,286047000.6,N
1645547235.0,286046998.1,N
1645547235.9,286046998.1,N
1645547255.8,286046998.9,N
1645547275.6,286047000.8,N
1645547295.4,286046998.8,N
1645547315.3,286046999.3,N
1645547335.1,286046998.5,N
1645547355.8,286046999.1,N
1645547375.7,286046999.0,N
1645547395.5,286046998.8,N
1645547415.4,286046999.1,N
1645547435.2,286046997.1,Y
1645547455.0,286046997.8,P
1645547455.9,286046997.8,P
1645547475.8,286046996.8,P
1645547495.6,286046997.6,Y
1645547515.5,286046999.6,P
1645547535.3,286046999.0,N
1645547555.1,286046998.1,N
1645547575.9,286047000.3,N
1645547595.7,286047000.9,N
1645547615.5,286047000.9,N
1645547635.4,286047000.9,N
1645547655.2,286047000.7,N
1645547675.1,286046998.2,N
1645547676.0,286046998.2,N
1645547695.8,286047000.8,N
1645547715.6,286047000.5,N
1645547735.5,286047000.5,N
1645547755.3,286047000.5,N
1645547775.1,286047002.0,N
1645547795.9,286047002.4,N
1645547815.7,286047002.8,N
1645547835.6,286047002.1,N
1645547855.4,286047001.8,N
1645547875.2,286047001.8,N
1645547895.1,286047003.3,N
1645547896.0,286047003.3,N
1645547915.8,286047002.0,N
1645547935.7,286047002.7,N
1645547955.5,286047000.3,N
1645547975.3,286047001.9,N
1645547995.2,286046999.7,N
1645548015.9,286047001.4,N
1645548035.7,286047001.7,N
1645548055.6,286047001.5,N
1645548075.4,286047001.4,N
1645548095.3,286047004.4,Y
1645548115.1,286047002.4,P
1645548116.0,286047002.4,P
1645548135.8,286047001.6,N
1645548155.7,286047002.0,Y
1645548175.5,286047000.6,P
1645548195.3,286046998.5,N
1645548215.2,286046998.5,N
1645548235.0,286046998.5,N
1645548235.9,286046998.5,N
1645548255.8,286047001.0,N
1645548275.6,286046998.6,N
1645548295.4,286046999.0,N
1645548315.3,286046998.5,N
1645548335.1,286046998.5,N
1645548355.9,286047000.5,N
1645548375.7,286046998.4,N
1645548395.5,286046998.8,N
1645548415.4,286047001.2,N
1645548435.2,286046999.6,N
1645548455.0,286046998.8,N
1645548455.9,286046998.8,N
1645548475.8,286046998.8,N
1645548495.6,286046999.4,N
1645548515.5,286046998.7,N
1645548535.3,286046999.5,N
1645548555.1,286046996.6,Y
1645548575.9,286046998.5,P
1645548595.7,286046998.7,P
1645548615.5,286046998.8,P
1645548635.4,286046998.3,Y
1645548655.2,286047002.6,P
1645548675.1,286047000.7,N
1645548676.0,286047000.7,N
1645548695.8,286047000.0,N
1645548715.6,286047000.8,N
1645548735.5,286047001.2,N
1645548755.3,286047000.7,N
1645548775.2,286047001.0,N
1645548795.9,286047000.4,N
1645548815.7,286047001.0,N
1645548835.6,286047000.3,N
1645548855.4,286047000.3,N
1645548875.2,286047000.0,N
1645548895.1,286047000.0,N
1645548896.0,286047000.0,N
1645548915.8,286047002.1,N
1645548935.7,286047001.7,N
1645548955.5,286047002.7,Y
1645548975.3,286047001.1,P
1645548995.2,286046999.8,N
1645549015.0,286047002.5,P
1645549015.9,286047002.5,N
1645549035.7,286046999.9,N
1645549055.6,286047002.2,N
1645549075.4,286047001.3,N
1645549095.3,286047003.2,Y
1645549115.1,286047001.7,P
1645549116.0,286047001.7,P
1645549135.8,286047001.9,P
1645549155.7,286047002.4,Y
1645549175.5,286046998.1,P
1645549195.4,286047001.1,N
